This is the latest recevied weather packets stored in our database for station/object K1LVA. If no packets are shown the sender has not sent any weather packets the latest 10 day(s).
| Time | Temp. | Humidity | Pressure | Rain* | Wind** | Luminosity | Snow |
|---|---|---|---|---|---|---|---|
| 1778088177 | 25.56° C | 67% | 1015.9 hPa | 0 mm | - | 279 W/m² | - |
| 1778087875 | 25.56° C | 68% | 1016.4 hPa | 0 mm | - | 248 W/m² | - |
| 1778087571 | 26.11° C | 68% | 1016.3 hPa | 0 mm | - | 324 W/m² | - |
| 1778087270 | 26.11° C | 66% | 1016.5 hPa | 0 mm | - | 384 W/m² | - |
| 1778086965 | 25.56° C | 70% | 1016.3 hPa | 0 mm | - | 424 W/m² | - |
| 1778086664 | 25° C | 71% | 1016.4 hPa | 0 mm | - | 440 W/m² | - |
| 1778086361 | 24.44° C | 70% | 1016.5 hPa | 0 mm | - | 385 W/m² | - |
| 1778086058 | 24.44° C | 71% | 1016.6 hPa | 0 mm | - | 265 W/m² | - |
| 1778085755 | 24.44° C | 71% | 1016.5 hPa | 0 mm | - | 257 W/m² | - |
| 1778085452 | 25° C | 70% | 1016.6 hPa | 0 mm | - | 403 W/m² | - |
| 1778085146 | 25° C | 72% | 1016.8 hPa | 0 mm | - | 600 W/m² | - |
| 1778084843 | 24.44° C | 73% | 1016.5 hPa | 0 mm | - | 469 W/m² | - |
| 1778084541 | 24.44° C | 74% | 1016.9 hPa | 0 mm | - | 241 W/m² | - |
| 1778084238 | 24.44° C | 73% | 1016.7 hPa | 0 mm | - | 315 W/m² | - |
| 1778083935 | 24.44° C | 74% | 1016.7 hPa | 0 mm | - | 377 W/m² | - |
| 1778083633 | 25° C | 73% | 1016.8 hPa | 0 mm | - | 427 W/m² | - |
| 1778083329 | 24.44° C | 73% | 1016.7 hPa | 0 mm | - | 350 W/m² | - |
| 1778083028 | 23.89° C | 75% | 1016.8 hPa | 0 mm | - | 350 W/m² | - |
| 1778082724 | 23.89° C | 74% | 1016.7 hPa | 0 mm | - | 353 W/m² | - |
| 1778081586 | 23.89° C | 74% | 1016.4 hPa | 0 mm | - | 280 W/m² | - |
| 1778081283 | 23.33° C | 76% | 1016.5 hPa | 0 mm | - | 313 W/m² | - |
| 1778080980 | 23.33° C | 75% | 1016.4 hPa | 0 mm | - | 333 W/m² | - |
| 1778080679 | 23.33° C | 75% | 1016.2 hPa | 0 mm | - | 367 W/m² | - |
| 1778080375 | 22.78° C | 76% | 1016.1 hPa | 0 mm | - | 531 W/m² | - |
| 1778080072 | 22.78° C | 76% | 1016.1 hPa | 0 mm | - | 444 W/m² | - |
* Rain latest hour (hover to see other rain measurements)
** Current wind speed in m/s (hover to see current wind gust speed)